Appleton, MN

1:24 AM CDT on May 27, 2018 (GMT -0500)
Appleton Municipal

Weather History for KAQP - May, 2014

Change the Weather History Date:

Saturday, May 10, 2014

  Actual Average Record
Temperature  
Mean Temperature 53 °F -  
Max Temperature 71 °F 64 °F 84 °F (2011)
Min Temperature 35 °F 41 °F 28 °F (2002)
Degree Days  
Heating Degree Days 12    
Growing Degree Days 3 (Base 50)    
Moisture  
Dew Point 44 °F    
Average Humidity 70    
Maximum Humidity 93    
Minimum Humidity 38    
Precipitation  
Precipitation 0.03 in - - ()
Sea Level Pressure  
Sea Level Pressure 29.76 in    
Wind  
Wind Speed 8 mph (SE)    
Max Wind Speed 24 mph    
Max Gust Speed 32 mph    
Visibility 10 miles    
Events Rain , Thunderstorm    
Averages and records for this station are not official NWS values.
T = Trace of Precipitation, MM = Missing Value Source: NWS Daily Summary

Daily Weather History Graph

Daily Weather History Graph

Search for Another Location

Airport or City:

Astronomy

May. 10, 2014 Rise Set
Actual Time 6:00 AM CDT 8:41 PM CDT
Civil Twilight 5:26 AM CDT 9:15 PM CDT
Nautical Twilight 4:44 AM CDT 9:57 PM CDT
Astronomical Twilight 3:55 AM CDT 10:47 PM CDT
Moon 4:26 PM CDT (5/10) 3:46 AM CDT (5/10)
Length of Visible Light 15h 48m
Length of Day
14h 41m
Waxing Gibbous, 82% of the Moon is Illuminated
May 10
Waxing Gibbous
May 14
Full
May 21
Last Quarter
May 28
New
Jun 5
First Quarter

Hourly Weather History & Observations

Time (CDT) Temp. Windchill Dew Point Humidity Pressure Visibility Wind Dir Wind Speed Gust Speed Precip Events Conditions
12:14 AM 41.0 °F - 37.4 °F 87% 29.81 in 10.0 mi Calm Calm - N/A   Clear
12:34 AM 39.2 °F - 35.6 °F 87% 29.81 in 10.0 mi Calm Calm - N/A   Clear
12:53 AM 39.2 °F - 35.6 °F 87% 29.81 in 10.0 mi Calm Calm - N/A   Clear
1:14 AM 39.2 °F 35.9 °F 35.6 °F 87% 29.82 in 10.0 mi SSW 4.6 mph - N/A   Clear
1:34 AM 42.8 °F 40.1 °F 37.4 °F 81% 29.82 in 10.0 mi South 4.6 mph - N/A   Clear
1:54 AM 41.0 °F - 35.6 °F 81% 29.82 in 10.0 mi Calm Calm - N/A   Clear
2:14 AM 39.2 °F - 35.6 °F 87% 29.82 in 10.0 mi Calm Calm - N/A   Clear
2:34 AM 39.2 °F - 35.6 °F 87% 29.81 in 10.0 mi Calm Calm - N/A   Clear
2:54 AM 37.4 °F - 35.6 °F 93% 29.81 in 10.0 mi Calm Calm - N/A   Clear
3:14 AM 35.6 °F - 33.8 °F 93% 29.81 in 7.0 mi Calm Calm - N/A   Clear
3:34 AM 35.6 °F - 33.8 °F 93% 29.82 in 7.0 mi Calm Calm - N/A   Clear
3:53 AM 35.6 °F - 33.8 °F 93% 29.82 in 10.0 mi Calm Calm - N/A   Clear
4:14 AM 35.6 °F 32.8 °F 33.8 °F 93% 29.82 in 10.0 mi SSE 3.5 mph - N/A   Clear
4:33 AM 35.6 °F 30.7 °F 33.8 °F 93% 29.82 in 10.0 mi SSE 5.8 mph - N/A   Clear
4:54 AM 39.2 °F 33.6 °F 35.6 °F 87% 29.82 in 10.0 mi SSE 8.1 mph - N/A   Clear
5:13 AM 41.0 °F 37.1 °F 35.6 °F 81% 29.81 in 10.0 mi SSE 5.8 mph - N/A   Clear
5:34 AM 39.2 °F 35.0 °F 35.6 °F 87% 29.81 in 10.0 mi SE 5.8 mph - N/A   Clear
5:55 AM 37.4 °F 34.9 °F 33.8 °F 87% 29.81 in 5.0 mi SE 3.5 mph - N/A   Clear
6:14 AM 37.4 °F 32.8 °F 35.6 °F 93% 29.81 in 10.0 mi SE 5.8 mph - N/A   Clear
6:34 AM 37.4 °F 32.8 °F 35.6 °F 93% 29.81 in 10.0 mi ESE 5.8 mph - N/A   Clear
6:54 AM 39.2 °F 35.0 °F 35.6 °F 87% 29.81 in 10.0 mi East 5.8 mph - N/A   Clear
7:14 AM 42.8 °F 40.1 °F 37.4 °F 81% 29.81 in 10.0 mi East 4.6 mph - N/A   Scattered Clouds
7:34 AM 44.6 °F 41.4 °F 39.2 °F 81% 29.80 in 10.0 mi ESE 5.8 mph - N/A   Clear
7:53 AM 46.4 °F 43.5 °F 41.0 °F 81% 29.80 in 10.0 mi ESE 5.8 mph - N/A   Clear
8:14 AM 48.2 °F - 42.8 °F 82% 29.81 in 10.0 mi SE 8.1 mph - N/A   Clear
8:34 AM 51.8 °F - 42.8 °F 71% 29.80 in 10.0 mi SE 9.2 mph - N/A   Clear
8:54 AM 53.6 °F - 42.8 °F 67% 29.80 in 10.0 mi SE 10.4 mph - N/A   Clear
9:15 AM 55.4 °F - 42.8 °F 63% 29.80 in 10.0 mi SE 11.5 mph - N/A   Clear
9:33 AM 57.2 °F - 42.8 °F 59% 29.79 in 10.0 mi SE 13.8 mph - N/A   Clear
9:54 AM 60.8 °F - 42.8 °F 52% 29.78 in 10.0 mi SE 16.1 mph 20.7 mph N/A   Scattered Clouds
10:14 AM 60.8 °F - 41.0 °F 48% 29.77 in 10.0 mi ESE 18.4 mph 21.9 mph N/A   Scattered Clouds
10:35 AM 62.6 °F - 41.0 °F 45% 29.77 in 10.0 mi SE 16.1 mph 26.5 mph N/A   Clear
10:55 AM 62.6 °F - 42.8 °F 48% 29.76 in 10.0 mi SE 18.4 mph 26.5 mph N/A   Clear
11:13 AM 62.6 °F - 42.8 °F 48% 29.76 in 10.0 mi ESE 19.6 mph 24.2 mph N/A   Clear
11:34 AM 62.6 °F - 42.8 °F 48% 29.76 in 10.0 mi SE 20.7 mph 26.5 mph N/A   Clear
11:54 AM 64.4 °F - 42.8 °F 45% 29.75 in 10.0 mi ESE 20.7 mph 26.5 mph N/A   Clear
12:14 PM 66.2 °F - 42.8 °F 43% 29.74 in 10.0 mi ESE 24.2 mph 29.9 mph N/A   Clear
12:34 PM 66.2 °F - 44.6 °F 46% 29.73 in 10.0 mi SE 20.7 mph 26.5 mph N/A   Clear
12:54 PM 66.2 °F - 44.6 °F 46% 29.72 in 10.0 mi ESE 24.2 mph 32.2 mph N/A   Clear
1:13 PM 68.0 °F - 44.6 °F 43% 29.72 in 10.0 mi SE 24.2 mph 31.1 mph N/A   Clear
1:33 PM 69.8 °F - 44.6 °F 40% 29.71 in 10.0 mi SE 20.7 mph 28.8 mph N/A   Clear
1:53 PM 69.8 °F - 44.6 °F 40% 29.70 in 10.0 mi SE 16.1 mph 28.8 mph N/A   Clear
2:13 PM 71.6 °F - 44.6 °F 38% 29.70 in 10.0 mi SE 13.8 mph 24.2 mph N/A   Clear
2:33 PM 71.6 °F - 44.6 °F 38% 29.68 in 10.0 mi SE 18.4 mph 26.5 mph N/A   Clear
2:54 PM 71.6 °F - 44.6 °F 38% 29.68 in 10.0 mi SE 15.0 mph 23.0 mph N/A   Scattered Clouds
3:14 PM 69.8 °F - 46.4 °F 43% 29.65 in 10.0 mi ESE 20.7 mph 24.2 mph N/A   Clear
3:33 PM 69.8 °F - 46.4 °F 43% 29.64 in 10.0 mi ESE 19.6 mph 27.6 mph N/A   Clear
4:13 PM 68.0 °F - 48.2 °F 49% 29.65 in 10.0 mi SE 21.9 mph 29.9 mph N/A   Clear
4:34 PM 69.8 °F - 48.2 °F 46% 29.66 in 10.0 mi SE 18.4 mph 27.6 mph N/A   Clear
4:53 PM 69.8 °F - 50.0 °F 49% 29.65 in 10.0 mi SE 18.4 mph 29.9 mph N/A   Clear
5:14 PM 66.2 °F - 51.8 °F 60% 29.65 in 10.0 mi SE 18.4 mph 27.6 mph N/A   Scattered Clouds
5:35 PM 66.2 °F - 51.8 °F 60% 29.68 in 10.0 mi SE 16.1 mph 19.6 mph N/A Rain , Thunderstorm Light Thunderstorms and Rain
5:53 PM 62.6 °F - 53.6 °F 72% 29.68 in 10.0 mi ESE 16.1 mph 19.6 mph 0.01 in Rain , Thunderstorm Thunderstorms and Rain
6:14 PM 62.6 °F - 53.6 °F 72% 29.63 in 7.0 mi ESE 20.7 mph 32.2 mph 0.02 in Rain , Thunderstorm Light Thunderstorms and Rain
6:34 PM 62.6 °F - 53.6 °F 72% 29.66 in 10.0 mi ESE 15.0 mph 20.7 mph 0.02 in Thunderstorm Scattered Clouds
6:55 PM 64.4 °F - 53.6 °F 68% 29.67 in 10.0 mi SE 13.8 mph 24.2 mph 0.02 in   Scattered Clouds
7:13 PM 64.4 °F - 53.6 °F 68% 29.68 in 10.0 mi ESE 21.9 mph 32.2 mph N/A   Scattered Clouds
7:34 PM 62.6 °F - 53.6 °F 72% 29.69 in 10.0 mi ESE 18.4 mph 27.6 mph N/A   Scattered Clouds
7:53 PM 62.6 °F - 53.6 °F 72% 29.70 in 10.0 mi SE 17.3 mph 24.2 mph N/A   Clear
8:15 PM 62.6 °F - 53.6 °F 72% 29.72 in 10.0 mi SE 18.4 mph 28.8 mph N/A   Scattered Clouds
8:34 PM 62.6 °F - 51.8 °F 68% 29.74 in 10.0 mi SSE 11.5 mph 20.7 mph N/A   Scattered Clouds
8:54 PM 60.8 °F - 51.8 °F 72% 29.76 in 10.0 mi SSW 10.4 mph - N/A   Mostly Cloudy
9:14 PM 59.0 °F - 51.8 °F 77% 29.75 in 10.0 mi SE 12.7 mph - N/A   Scattered Clouds
9:34 PM 57.2 °F - 51.8 °F 82% 29.76 in 10.0 mi SE 12.7 mph - N/A   Clear
10:13 PM 57.2 °F - 51.8 °F 82% 29.77 in 10.0 mi SSE 8.1 mph - N/A   Clear
10:33 PM 55.4 °F - 51.8 °F 88% 29.78 in 10.0 mi SSE 10.4 mph - N/A   Clear
10:53 PM 55.4 °F - 51.8 °F 88% 29.78 in 10.0 mi SSE 9.2 mph - N/A   Clear
11:14 PM 55.4 °F - 51.8 °F 88% 29.79 in 10.0 mi SSE 9.2 mph - N/A   Clear
11:34 PM 55.4 °F - 51.8 °F 88% 29.79 in 10.0 mi SSE 9.2 mph - N/A   Clear
11:54 PM 55.4 °F - 51.8 °F 88% 29.78 in 10.0 mi SSE 11.5 mph - N/A   Clear